Погода в Новой Сыде

Россия / Красноярский край     54°23′41″N   91°25′17″E
темп.,
°C
ветер,
м/с
пор.,
м/с
влажн.,
%
обл.,
%
осадки,
мм/ч
давл.,
гПа
погр.,
м
19 мая, ср
ср1901:00+9ссз2492100 0.3 1007234
04:00+7с2294100 0.0 100545
07:00+8с2490100 0.0 1005267
10:00+8ссв4681100 0.3 1004616
13:00+7с3483100 2.1 1005796
16:00+9с3675100 0.8 1004928
19:00+10ссз3765100 1.1 1004616
22:00+5ссз3669100 0.0 1006127
20 мая, чт
чт2001:00+4ссз2271100 0.0 100641
04:00+3ссз2274100 0.0 100749
07:00+4ссз3763100 0.0 1007350
10:00+7с554480 0.0 10071537
13:00+8с554398 0.0 10071864
16:00+7ссз7848100 0.0 10091690
19:00+5с4759100 0.1 10121039
22:00+4ссз3760100 0.1 1014386
21 мая, пт
пт2101:00+4ссз41063100 0.2 1015493
04:00+2сз4971100 0.0 1017418
07:00+2ссз61177100 0.0 1019655
10:00+5сз6770100 0.0 10211104
13:00+4ссз6881100 0.1 1022846
16:00+8ссз5763100 0.1 10211353
19:00+9ссз576590 0.3 1022986
22:00+6зсз227387 0.1 102410
22 мая, сб
сб2201:00+4ссз227217 0.1 102523
04:00+3сз227363 0.0 102713
07:00+6зсз1264100 0.0 1028111
10:00+10з354593 0.0 10271805
13:00+12зсз5639100 0.0 10262285
16:00+12зсз4641100 0.0 10252133
19:00+12сз364965 0.0 10261594
22:00+8з1164100 0.0 102712
23 мая, вс
вс2301:00+6зюз1172100 0.0 102711
04:00+7ю2270100 0.0 102732
07:00+8ююв1273100 0.0 102768
10:00+8ю2377100 0.1 1027179
13:00+12ю3355100 0.1 1026721
16:00+14ююв3353100 0.1 1025737
19:00+11в3583100 1.4 1025157
22:00+9в23947 0.9 102582